Regional Weather Roundup
Issued by NWS

Home | Current Version | Previous Version | Text Only | Print | Product List | Glossary On
Versions: 1 2 3 4 5 6 7 8 9 10 11 12 13 14 15 16 17 18 19 20 21 22 23 24 25 26 27 28 29 30 31 32 33 34 35 36 37 38 39 40 41 42 43 44
606
ASUS44 KJAN 051203
RWRMS

MISSISSIPPI HOURLY WEATHER ROUNDUP
NATIONAL WEATHER SERVICE JACKSON MS
600 AM CST THU MAR 05 2015

NOTE: "FAIR: INDICATES FEW OR NO CLOUDS BELOW 12,000 FEET WITH NO
SIGNIFICANT WEATHER AND/OR OBSTRUCTIONS TO VISIBILITY.

MSZ001>002-007>008-010>013-018>021-025>028-034>036-051300-
NORTHWEST MISSISSIPPI

CITY           SKY/WX    TMP DP  RH WIND       PRES   REMARKS
CLARKSDALE       N/A     23  21  93 CALM      30.37R
CLEVELAND      CLOUDY    24  22  92 N23G36    30.34R WCI   9
GREENWOOD      CLOUDY    27  24  89 N15G24    30.27R FOG     WCI  15
6HR MIN TEMP:  27; 6HR MAX TEMP:  35;

GREENVILLE     MIX PCPN  25  20  81 MISG      30.35R
6HR MIN TEMP:  25; 6HR MAX TEMP:  32; 6HR PCP:  0.29;

OLIVE BRANCH   CLOUDY    19  19 100 CALM      30.33R
OXFORD         CLOUDY    21  18  86 N16G23    30.25F FOG     WCI   7
TUNICA         LGT SNOW  23  21  93 N9        30.39R WCI  13
$$

MSZ003>006-009-014>017-022>024-029>033-037>039-051300-
NORTHEAST MISSISSIPPI

CITY           SKY/WX    TMP DP  RH WIND       PRES   REMARKS
COLUMBUS AFB   FRZ RAIN  32  30  93 N15       30.13R WCI  22
CORINTH        LGT SNOW  23  19  86 MISG      30.26R
GOLDN TRIANGLE FRZ RAIN  32  28  86 N14G20    30.14R WCI  22
STARKVILLE     MIX PCPN  32  32 100 CALM      30.18R
TUPELO         LGT SNOW  26  22  84 N15G23    30.20R FOG     WCI  14
6HR MIN TEMP:  26; 6HR MAX TEMP:  34; 6HR PCP:  0.35;

$$

MSZ040-058-051300-
CENTRAL MISSISSIPPI

CITY           SKY/WX    TMP DP  RH WIND       PRES   REMARKS
JACKSON INTL   LGTSLEET  33  30  88 NW16G25   30.22R FOG     WCI  23
6HR MIN TEMP:  33; 6HR MAX TEMP:  44; 6HR PCP:  0.13;

JACKSON HAWKNS FRZ RAIN  32  30  92 N12G17    30.22R FOG     WCI  23
6HR MIN TEMP:  31; 6HR MAX TEMP:  41; 6HR PCP:  0.10;

MERIDIAN KEY   LGT RAIN  37  35  92 NW14      30.12R WCI  28
6HR MIN TEMP:  37; 6HR MAX TEMP:  48; 6HR PCP:  0.36;

MERIDIAN NAS   LGT RAIN  36  33  89 NW20G29   30.12R WCI  25
6HR MIN TEMP:  36; 6HR MAX TEMP:  45; 6HR PCP:  0.27;

VICKSBURG      MIX PCPN  32  30  92 N18       30.27R FOG     WCI  20
6HR MIN TEMP:  31; 6HR MAX TEMP:  36; 6HR PCP:  0.20;

$$

MSZ059>079-051300-
SOUTH MISSISSIPPI

CITY           SKY/WX    TMP DP  RH WIND       PRES   REMARKS
BROOKHAVEN     LGT RAIN  32  32 100 N14G26    30.19R WCI  22
HATTIESBURG    LGT RAIN  46  44  93 NW15G28   30.08R
6HR MIN TEMP:  46; 6HR MAX TEMP:  73; 6HR PCP: TRACE;

MCCOMB         CLOUDY    36  33  89 N20G36    30.15R WCI  25
6HR MIN TEMP:  36; 6HR MAX TEMP:  71; 6HR PCP:  0.51;

NATCHEZ        NOT AVBL
PINE BELT      CLOUDY    43  37  81 NW13G23   30.09R
6HR MIN TEMP:  43; 6HR MAX TEMP:  72;

$$

MSZ080>082-051300-
COASTAL MISSISSIPPI

CITY           SKY/WX    TMP DP  RH WIND       PRES   REMARKS
BILOXI         FOG       66  66 100 SW7       29.96R VSB 3/4
6HR MIN TEMP:  64; 6HR MAX TEMP:  66;

PASCAGOULA     CLOUDY    66  66 100 SW3       29.96R FOG
6HR MIN TEMP:  66; 6HR MAX TEMP:  70;

GULFPORT       CLOUDY    69  68  96 W5        29.95R FOG
6HR MIN TEMP:  64; 6HR MAX TEMP:  69;

$$



USA.gov is the U.S. government's official web portal to all federal, state and local government web resources and services.